TimePDT,TemperatureF,Dew PointF,Humidity,Sea Level PressureIn,VisibilityMPH,Wind Direction,Wind SpeedMPH,Gust SpeedMPH,PrecipitationIn,Events,Conditions,WindDirDegrees,DateUTC
12:15 AM,82.4,59.0,45,29.87,10.0,Calm,Calm,-,N/A,,Clear,0,2013-07-28 07:15:00
12:35 AM,84.2,59.0,42,29.87,10.0,NW,3.5,-,N/A,,Clear,320,2013-07-28 07:35:00
12:55 AM,82.4,59.0,45,29.87,10.0,NW,3.5,-,N/A,,Clear,320,2013-07-28 07:55:00
1:15 AM,80.6,59.0,48,29.86,10.0,Calm,Calm,-,N/A,,Clear,0,2013-07-28 08:15:00
1:35 AM,80.6,60.8,51,29.86,10.0,Calm,Calm,-,N/A,,Clear,0,2013-07-28 08:35:00
1:55 AM,80.6,59.0,48,29.86,10.0,NW,4.6,-,N/A,,Clear,320,2013-07-28 08:55:00
2:15 AM,80.6,59.0,48,29.86,10.0,WNW,3.5,-,N/A,,Clear,290,2013-07-28 09:15:00
2:35 AM,80.6,59.0,48,29.86,10.0,West,3.5,-,N/A,,Clear,280,2013-07-28 09:35:00
2:55 AM,80.6,59.0,48,29.86,10.0,West,3.5,-,N/A,,Clear,280,2013-07-28 09:55:00
3:15 AM,78.8,59.0,51,29.86,10.0,Calm,Calm,-,N/A,,Clear,0,2013-07-28 10:15:00
3:35 AM,77.0,59.0,54,29.86,10.0,Calm,Calm,-,N/A,,Clear,0,2013-07-28 10:35:00
3:55 AM,78.8,59.0,51,29.86,10.0,Calm,Calm,-,N/A,,Clear,0,2013-07-28 10:55:00
4:15 AM,80.6,59.0,48,29.86,10.0,Calm,Calm,-,N/A,,Clear,0,2013-07-28 11:15:00
4:35 AM,80.6,59.0,48,29.86,10.0,Calm,Calm,-,N/A,,Clear,0,2013-07-28 11:35:00
4:55 AM,78.8,60.8,54,29.86,10.0,WNW,3.5,-,N/A,,Clear,300,2013-07-28 11:55:00
5:15 AM,80.6,59.0,48,29.86,10.0,Calm,Calm,-,N/A,,Clear,0,2013-07-28 12:15:00
5:35 AM,77.0,62.6,61,29.87,10.0,Calm,Calm,-,N/A,,Clear,0,2013-07-28 12:35:00
5:55 AM,77.0,62.6,61,29.87,10.0,Calm,Calm,-,N/A,,Clear,0,2013-07-28 12:55:00
6:15 AM,78.8,60.8,54,29.88,10.0,Calm,Calm,-,N/A,,Clear,0,2013-07-28 13:15:00
6:35 AM,78.8,60.8,54,29.89,10.0,Calm,Calm,-,N/A,,Clear,0,2013-07-28 13:35:00
6:55 AM,82.4,59.0,45,29.89,10.0,Calm,Calm,-,N/A,,Clear,0,2013-07-28 13:55:00
7:15 AM,82.4,59.0,45,29.89,10.0,North,4.6,-,N/A,,Clear,350,2013-07-28 14:15:00
7:35 AM,84.2,59.0,42,29.89,10.0,NW,4.6,-,N/A,Thunderstorm,Clear,320,2013-07-28 14:35:00
7:55 AM,86.0,57.2,37,29.89,10.0,WNW,6.9,-,N/A,,Clear,300,2013-07-28 14:55:00
8:15 AM,86.0,59.0,40,29.89,10.0,NW,6.9,-,N/A,,Clear,320,2013-07-28 15:15:00
8:35 AM,87.8,59.0,38,29.90,10.0,Calm,Calm,-,N/A,,Clear,0,2013-07-28 15:35:00
8:55 AM,87.8,59.0,38,29.89,10.0,Calm,Calm,-,N/A,,Clear,0,2013-07-28 15:55:00
9:15 AM,89.6,59.0,36,29.89,10.0,Calm,Calm,-,N/A,,Clear,0,2013-07-28 16:15:00
9:35 AM,89.6,59.0,36,29.89,10.0,Calm,Calm,-,N/A,,Clear,0,2013-07-28 16:35:00
9:55 AM,89.6,57.2,33,29.89,10.0,Calm,Calm,-,N/A,,Clear,0,2013-07-28 16:55:00
10:15 AM,89.6,57.2,33,29.89,10.0,Calm,Calm,-,N/A,,Clear,0,2013-07-28 17:15:00
10:35 AM,91.4,57.2,31,29.88,10.0,NNE,4.6,-,N/A,,Clear,20,2013-07-28 17:35:00
10:55 AM,91.4,57.2,31,29.88,10.0,Calm,Calm,-,N/A,,Clear,0,2013-07-28 17:55:00
11:15 AM,93.2,57.2,30,29.87,10.0,ESE,5.8,-,N/A,,Clear,120,2013-07-28 18:15:00
11:35 AM,91.4,57.2,31,29.87,10.0,SSE,4.6,-,N/A,Thunderstorm,Clear,150,2013-07-28 18:35:00
11:55 AM,91.4,55.4,29,29.87,10.0,SSE,4.6,-,N/A,,Clear,150,2013-07-28 18:55:00
12:15 PM,91.4,55.4,29,29.86,10.0,South,4.6,-,N/A,,Clear,170,2013-07-28 19:15:00
12:35 PM,91.4,57.2,31,29.87,10.0,WSW,12.7,17.3,N/A,,Clear,250,2013-07-28 19:35:00
12:55 PM,87.8,64.4,46,29.86,10.0,West,12.7,-,N/A,,Clear,260,2013-07-28 19:55:00
1:15 PM,89.6,62.6,40,29.86,10.0,SW,17.3,20.7,N/A,,Clear,230,2013-07-28 20:15:00
1:35 PM,89.6,60.8,38,29.86,10.0,SW,15.0,20.7,N/A,,Clear,230,2013-07-28 20:35:00
1:55 PM,86.0,60.8,43,29.86,10.0,WSW,16.1,-,N/A,,Clear,240,2013-07-28 20:55:00
2:15 PM,86.0,60.8,43,29.86,10.0,SW,9.2,-,N/A,,Clear,230,2013-07-28 21:15:00
2:35 PM,86.0,60.8,43,29.87,10.0,WSW,8.1,-,N/A,,Clear,250,2013-07-28 21:35:00
2:55 PM,86.0,62.6,45,29.87,10.0,West,6.9,-,N/A,,Clear,280,2013-07-28 21:55:00
3:15 PM,86.0,62.6,45,29.85,10.0,South,5.8,-,N/A,,Clear,180,2013-07-28 22:15:00
3:35 PM,86.0,60.8,43,29.83,10.0,SSW,4.6,-,N/A,Thunderstorm,Clear,200,2013-07-28 22:35:00
3:55 PM,87.8,59.0,38,29.81,10.0,SSW,5.8,-,N/A,,Partly Cloudy,200,2013-07-28 22:55:00
4:15 PM,89.6,59.0,36,29.80,10.0,SW,6.9,-,N/A,,Clear,220,2013-07-28 23:15:00
4:35 PM,89.6,57.2,33,29.80,10.0,WSW,4.6,-,N/A,,Clear,250,2013-07-28 23:35:00
4:55 PM,91.4,55.4,29,29.79,10.0,West,3.5,-,N/A,Thunderstorm,Clear,260,2013-07-28 23:55:00
5:15 PM,91.4,51.8,26,29.79,10.0,SW,6.9,-,N/A,,Clear,220,2013-07-29 00:15:00
5:35 PM,93.2,48.2,21,29.80,10.0,SW,8.1,-,N/A,,Clear,220,2013-07-29 00:35:00
5:55 PM,93.2,48.2,21,29.80,10.0,Calm,Calm,-,N/A,,Clear,0,2013-07-29 00:55:00
6:15 PM,93.2,50.0,23,29.80,10.0,Calm,Calm,-,N/A,,Clear,0,2013-07-29 01:15:00
6:35 PM,93.2,51.8,24,29.82,10.0,NNW,12.7,16.1,N/A,,Clear,330,2013-07-29 01:35:00
6:55 PM,89.6,48.2,24,29.82,10.0,NNW,25.3,33.4,N/A,,Clear,330,2013-07-29 01:55:00
7:15 PM,86.0,48.2,27,29.82,10.0,NNW,33.4,39.1,N/A,,Clear,330,2013-07-29 02:15:00
7:35 PM,84.2,50.0,30,29.84,7.0,NW,32.2,44.9,N/A,Thunderstorm,Clear,320,2013-07-29 02:35:00
8:15 PM,80.6,53.6,39,29.85,7.0,NW,31.1,48.3,N/A,,Clear,320,2013-07-29 03:15:00
8:35 PM,80.6,53.6,39,29.84,10.0,NW,28.8,44.9,N/A,,Clear,320,2013-07-29 03:35:00
8:55 PM,80.6,51.8,37,29.85,10.0,NW,21.9,35.7,N/A,,Clear,320,2013-07-29 03:55:00
9:15 PM,80.6,51.8,37,29.85,10.0,NNW,18.4,-,N/A,,Clear,330,2013-07-29 04:15:00
9:35 PM,82.4,50.0,32,29.86,10.0,NNW,15.0,-,N/A,,Partly Cloudy,330,2013-07-29 04:35:00
9:55 PM,82.4,51.8,35,29.90,10.0,WNW,4.6,-,N/A,Thunderstorm,Mostly Cloudy,300,2013-07-29 04:55:00
10:15 PM,84.2,50.0,30,29.89,10.0,Calm,Calm,-,N/A,Thunderstorm,Thunderstorm,0,2013-07-29 05:15:00
10:35 PM,77.0,59.0,54,29.84,9.0,NNE,10.4,-,N/A,,Mostly Cloudy,20,2013-07-29 05:35:00
10:55 PM,77.0,57.2,50,29.87,10.0,SW,4.6,-,N/A,,Clear,220,2013-07-29 05:55:00
11:15 PM,77.0,60.8,57,29.87,10.0,WNW,6.9,-,N/A,,Clear,300,2013-07-29 06:15:00
11:35 PM,75.2,59.0,57,29.87,10.0,WNW,6.9,-,N/A,,Partly Cloudy,300,2013-07-29 06:35:00
11:55 PM,77.0,57.2,50,29.87,10.0,West,4.6,-,N/A,,Clear,280,2013-07-29 06:55:00